Regional Weather Roundup
Issued by NWS Glasgow, MT

Home | Current Version | Previous Version | Text Only | Print | Product List | Glossary On
Versions: 1 2 3 4 5 6 7 8 9 10 11 12 13 14 15 16 17 18 19 20 21 22 23 24 25 26 27 28 29 30 31 32 33 34 35 36 37 38 39 40 41 42 43 44 45 46 47 48 49 50
000
ASUS45 KGGW 220215
RWRGGW
HOURLY WEATHER ROUNDUP FOR NORTHEAST MONTANA
NATIONAL WEATHER SERVICE GLASGOW MONTANA
700 PM MST SUN DEC 21 2014

NOTE: "FAIR" INDICATES FEW OR NO CLOUDS BELOW 12,000 FEET WITH NO
SIGNIFICANT WEATHER AND/OR OBSTRUCTIONS TO VISISBILITY.

NORTHEAST MONTANA


CITY           SKY/WX    TMP DP  RH WIND       PRES   REMARKS
GLASGOW        CLOUDY    35  31  85 W9        29.38R
PLENTYWOOD       N/A     31  30  96 S2          N/A
WOLF POINT     CLOUDY    33  31  92 W9        29.37S
JORDAN           N/A     39  34  82 W16       29.45R
WINNETT          N/A     41  33  73 W21G33      N/A
SIDNEY         CLOUDY    34  32  93 CALM      29.39S
GLENDIVE       MOCLDY    37  36  93 W20       29.39S
MALTA            N/A     39  32  76 W12G20      N/A
SCOBEY           N/A     31  25  78 CALM      29.37S

FORT PECK REPORTS


CITY           SKY/WX    TMP DP  RH WIND       PRES   REMARKS
FORT PECK        N/A     38  33  82 W12G21      N/A
THE PINES        N/A     41  33  73 W12         N/A

SOUTHEAST MONTANA


CITY           SKY/WX    TMP DP  RH WIND       PRES   REMARKS
BILLINGS       MOCLDY    44  19  36 W25G36    29.59R
MILES CITY     CLOUDY    41  34  76 NW18G31   29.46R
BAKER          LGT RAIN  38  32  79 W20G25    29.41R
LIVINGSTON     PTCLDY    37  26  64 W26G39    29.68R

CENTRAL MONTANA


CITY           SKY/WX    TMP DP  RH WIND       PRES   REMARKS
HAVRE          CLOUDY    37  29  72 NW13      29.55R
LEWISTOWN      CLOUDY    40  25  55 W23G36    29.58S
GREAT FALLS    PTCLDY    36  24  62 W16       29.64R
CUT BANK       CLEAR     34  25  69 W16       29.61R
HELENA         PTCLDY    40  24  53 W18G31    29.72R
BUTTE          MOCLDY    32  24  72 NW8       29.80R
BOZEMAN        PTCLDY    32  26  78 W9        29.78R

WESTERN MONTANA


CITY           SKY/WX    TMP DP  RH WIND       PRES   REMARKS
MISSOULA       MOCLDY    38  29  70 NW8       29.84S
KALISPELL      NOT AVBL

NORTH DAKOTA


CITY           SKY/WX    TMP DP  RH WIND       PRES   REMARKS
WILLISTON      CLOUDY    29  25  85 CALM      29.36F
DICKINSON      LGT RAIN  38  35  89 SW8       29.35S
MINOT          FOG       29  27  92 E13       29.42S VSB 1/2
BISMARCK       CLOUDY    30  29  96 SE12      29.46R

SOUTHERN SASKATCHEWAN


CITY           SKY/WX    TMP DP  RH WIND       PRES   REMARKS
REGINA         CLOUDY    25  25 100 E12       29.39R
ESTEVAN        CLOUDY    28  27  93 E8        29.38R
SWIFT CURRENT  LGT SNOW  21  21 100 W20G25    29.41R



USA.gov is the U.S. government's official web portal to all federal, state and local government web resources and services.